[[{"header":{"parameterUnit":"m.s-1","parameterCategory":1,"la1":30.2991,"la2":30.254,"lo1":-89.0895,"lo2":-89.0444,"dy":0.0017,"dx":0.0017,"nx":28,"ny":28,"refTime":"2025-09-17T03:00:00:Z","depth":0,"parameterNumber":2,"parameterNumberName":"U-component_of_WINDS"},"data":[0,0,0,0,0,0,0,0,0,0,0,0,0,0,0,0,0,0,0,0,0,0,0,0,0,0,0,0,0,0,0,0,0,0,0,0,0,0,0,0,0,0,0,0,0,0,0,0,0,0,0,0,0,0,0,0,0,0,-0.1092,-0.1091,0,-0.1053,-0.1053,-0.1052,-0.1012,-0.1011,-0.1011,-0.101,-0.0973,-0.0972,-0.0972,0,0,0,0,0,0,0,0,0,0,0,0,0,-0.1133,-0.1133,-0.1092,-0.1091,-0.1091,-0.1053,-0.1053,-0.1052,-0.1012,-0.1011,-0.1011,-0.101,-0.0973,-0.0972,-0.0972,0,0,0,0,0,0,0,0,0,0,0,0,0,-0.1107,-0.1133,-0.1092,-0.1066,-0.1064,-0.1053,-0.1053,-0.1052,-0.1012,-0.1011,-0.101,-0.101,-0.0973,-0.0973,-0.0972,-0.0985,0,0,-0.097,-0.0969,0,0,0,0,0,0,0,0,-0.1109,-0.1106,-0.107,-0.1068,-0.1065,-0.1036,-0.1054,-0.103,-0.1012,-0.1032,-0.101,-0.1009,-0.0995,-0.0992,-0.0987,-0.0983,-0.0981,-0.097,-0.0969,-0.0969,-0.0969,0,0,0,0,0,0,0,-0.1111,-0.1107,-0.1077,-0.107,-0.1067,-0.1057,-0.1053,-0.1049,-0.1019,-0.103,-0.1027,-0.1023,-0.0993,-0.0988,-0.0986,-0.0981,-0.097,-0.0969,-0.0969,-0.0968,-0.0986,-0.0987,0,0,0,0,0,0,-0.1116,-0.1109,-0.1078,-0.1075,-0.1085,-0.1057,-0.1052,-0.1046,-0.1019,-0.1013,-0.1024,-0.1021,-0.0989,-0.0987,-0.0984,-0.0998,-0.0969,-0.0968,-0.0968,-0.0985,-0.0986,-0.0987,0,0,0,0,0,0,-0.1117,-0.1114,-0.1079,-0.1091,-0.1086,-0.1058,-0.1052,-0.1046,-0.1041,-0.1014,-0.1008,-0.1023,-0.0989,-0.0985,-0.0985,-0.0996,-0.0968,-0.0967,-0.0984,-0.0986,-0.0987,-0.1026,0,0,0,0,0,0,-0.1118,-0.1114,-0.1118,-0.1092,-0.1086,-0.108,-0.1052,-0.1046,-0.1039,-0.1036,-0.1012,-0.1007,-0.0988,-0.0986,-0.0984,-0.0995,-0.0967,-0.0983,-0.0985,-0.0986,-0.1024,-0.1028,-0.1033,0,0,0,0,0,-0.112,-0.1131,-0.1119,-0.1115,-0.109,-0.1081,-0.1077,-0.1054,-0.104,-0.1045,-0.1027,-0.1008,-0.0995,-0.0986,-0.0984,-0.0995,-0.0982,-0.0984,-0.0986,-0.1021,-0.1027,-0.1033,0,0,0,0,0,0,-0.1161,-0.1127,-0.1113,-0.1116,-0.1101,-0.1074,-0.1079,-0.1061,-0.1051,-0.1048,-0.102,-0.1015,-0.1018,-0.1006,-0.0997,-0.1006,-0.0986,-0.0988,-0.1014,-0.1019,-0.1024,-0.1027,-0.0966,0,0,0,0,0,-0.117,-0.1164,-0.1135,-0.1141,-0.1134,-0.1108,-0.1103,-0.1086,-0.107,-0.1064,-0.1047,-0.1033,-0.1026,-0.1022,-0.1013,-0.1021,-0.1016,-0.1027,-0.1032,-0.1036,-0.1038,-0.1042,-0.1047,-0.0994,-0.0994,-0.0994,0,0,-0.1189,-0.117,-0.1168,-0.1148,-0.1135,-0.1131,-0.1103,-0.1099,-0.1096,-0.1064,-0.1062,-0.1049,-0.1032,-0.1036,-0.1037,-0.1026,-0.1052,-0.1038,-0.1042,-0.1042,-0.1045,-0.105,-0.1055,-0.0995,-0.0995,-0.0995,0,0,-0.1222,-0.1206,-0.1209,-0.1196,-0.1177,-0.1159,-0.116,-0.1135,-0.1125,-0.1123,-0.1098,-0.1095,-0.1083,-0.1072,-0.1064,-0.1093,-0.1076,-0.1091,-0.1116,-0.112,-0.1125,-0.1128,-0.114,-0.1144,-0.1093,-0.1093,-0.1093,0,-0.1248,-0.124,-0.1213,-0.1211,-0.1204,-0.1173,-0.1177,-0.1166,-0.1145,-0.1141,-0.1129,-0.1113,-0.11,-0.1101,-0.1108,-0.1103,-0.1104,-0.1094,-0.1126,-0.1129,-0.1132,-0.1143,-0.1147,-0.1095,-0.1095,-0.1095,-0.1095,0,-0.1274,-0.1269,-0.1274,-0.1254,-0.1247,-0.1248,-0.1222,-0.1218,-0.1201,-0.1185,-0.1184,-0.1166,-0.1155,-0.1153,-0.1138,-0.1153,-0.1147,-0.1131,-0.1111,-0.114,-0.115,-0.1153,-0.1098,-0.1098,-0.1097,-0.1097,0,0,-0.1333,-0.1297,-0.13,-0.129,-0.1266,-0.1262,-0.1262,-0.1249,-0.1247,-0.1234,-0.1234,-0.1224,-0.1209,-0.1201,-0.1184,-0.1187,-0.1213,-0.1171,-0.117,-0.118,-0.123,-0.1243,-0.1249,-0.12,-0.1201,-0.1202,-0.1232,0,-0.1362,-0.1359,-0.1335,-0.134,-0.1335,-0.1306,-0.1306,-0.1291,-0.1276,-0.1271,-0.1254,-0.1249,-0.1228,-0.1224,-0.1226,-0.1209,-0.1223,-0.1206,-0.1201,-0.1202,-0.1208,-0.1253,-0.1267,-0.1297,-0.1235,-0.1236,-0.1236,0,-0.1397,-0.1385,-0.1389,-0.1365,-0.1362,-0.1362,-0.1349,-0.1344,-0.1327,-0.1316,-0.1307,-0.1287,-0.1287,-0.1266,-0.1266,-0.1255,-0.1251,-0.1243,-0.1244,-0.1243,-0.1222,-0.1256,-0.1306,-0.1311,-0.1242,-0.1241,-0.1241,0,-0.1441,-0.1425,-0.1426,-0.1419,-0.139,-0.1391,-0.138,-0.1362,-0.1357,-0.1345,-0.1342,-0.1331,-0.1325,-0.1318,-0.1296,-0.1283,-0.1298,-0.1276,-0.129,-0.129,-0.1295,-0.1296,-0.1347,-0.1291,-0.1291,-0.1291,-0.129,0,-0.1477,-0.1481,-0.1445,-0.1446,-0.1449,-0.1422,-0.1426,-0.1412,-0.1397,-0.1395,-0.1368,-0.1367,-0.1338,-0.1333,-0.1316,-0.1319,-0.1316,-0.1308,-0.1304,-0.1311,-0.1312,-0.1309,-0.1307,-0.1292,-0.1291,-0.1291,-0.1291,0,-0.1528,-0.1503,-0.1502,-0.1475,-0.1468,-0.1473,-0.145,-0.145,-0.1433,-0.1431,-0.1428,-0.1402,-0.1396,-0.1373,-0.1361,-0.1349,-0.1358,-0.1349,-0.1364,-0.1361,-0.1377,-0.1376,-0.1429,-0.1435,-0.1374,-0.1375,-0.1375,0,-0.1554,-0.1556,-0.1529,-0.1525,-0.1514,-0.1509,-0.1502,-0.1475,-0.147,-0.1451,-0.1454,-0.1445,-0.1437,-0.1428,-0.1409,-0.14,-0.1391,-0.141,-0.139,-0.1397,-0.1393,-0.1394,-0.1394,-0.1415,-0.1416,-0.1416,-0.1417,0,-0.1602,-0.159,-0.1582,-0.1569,-0.1562,-0.1551,-0.1539,-0.1538,-0.1508,-0.1503,-0.1496,-0.149,-0.1477,-0.147,-0.1457,-0.1446,-0.1427,-0.1423,-0.1426,-0.1435,-0.1444,-0.1441,-0.1377,-0.1423,-0.1422,-0.1422,-0.1421,-0.1421,-0.1642,-0.1643,-0.1624,-0.1616,-0.1603,-0.1592,-0.1591,-0.1573,-0.1567,-0.1554,-0.1538,-0.1533,-0.1517,-0.1499,-0.1489,-0.1485,-0.1475,-0.1479,-0.148,-0.1482,-0.1486,-0.1443,-0.1483,-0.1483,-0.1483,-0.1482,-0.1482,0,-0.1691,-0.1677,-0.1669,-0.1653,-0.1646,-0.1627,-0.1613,-0.1609,-0.1605,-0.1591,-0.1583,-0.1575,-0.1567,-0.1547,-0.1537,-0.1539,-0.153,-0.1537,-0.1538,-0.1536,-0.1496,-0.1495,-0.1545,-0.1545,-0.1545,-0.1545,-0.1545,-0.1545,-0.1716,-0.1716,-0.1702,-0.1696,-0.1682,-0.1677,-0.167,-0.166,-0.1649,-0.1641,-0.1634,-0.1621,-0.1604,-0.1593,-0.1586,-0.158,-0.1579,-0.1589,-0.1581,-0.1544,-0.1538,-0.1533,-0.1532,-0.1589,-0.1589,-0.1622,-0.1622,-0.1622]},{"header":{"parameterUnit":"m.s-1","parameterCategory":1,"la1":30.2991,"la2":30.254,"lo1":-89.0895,"lo2":-89.0444,"dy":0.0017,"dx":0.0017,"nx":28,"ny":28,"refTime":"2025-09-17T03:00:00:Z","depth":0,"parameterNumber":3,"parameterNumberName":"V-component_of_WINDS"},"data":[0,0,0,0,0,0,0,0,0,0,0,0,0,0,0,0,0,0,0,0,0,0,0,0,0,0,0,0,0,0,0,0,0,0,0,0,0,0,0,0,0,0,0,0,0,0,0,0,0,0,0,0,0,0,0,0,0,0,3.8002,3.8001,0,3.798,3.798,3.798,3.7945,3.7944,3.7944,3.7943,3.7921,3.7921,3.7921,0,0,0,0,0,0,0,0,0,0,0,0,0,3.8013,3.8013,3.8002,3.8001,3.8001,3.798,3.798,3.798,3.7945,3.7944,3.7943,3.7943,3.7921,3.7921,3.7921,0,0,0,0,0,0,0,0,0,0,0,0,0,3.8001,3.8013,3.8002,3.7981,3.7979,3.798,3.798,3.798,3.7945,3.7944,3.7943,3.7942,3.7921,3.7921,3.7921,3.7941,0,0,3.7921,3.7921,0,0,0,0,0,0,0,0,3.8002,3.8001,3.7985,3.7983,3.798,3.7964,3.7976,3.7967,3.7945,3.7958,3.7943,3.7942,3.7936,3.7935,3.7933,3.794,3.7939,3.7921,3.7921,3.7921,3.7921,0,0,0,0,0,0,0,3.8003,3.8002,3.7993,3.7984,3.7982,3.7973,3.7971,3.7974,3.7953,3.7957,3.7954,3.7952,3.7935,3.7933,3.7932,3.7938,3.7921,3.7921,3.7921,3.7921,3.7959,3.796,0,0,0,0,0,0,3.8007,3.8003,3.7994,3.7992,3.7989,3.7974,3.7971,3.797,3.7953,3.7949,3.7953,3.7951,3.7934,3.7932,3.7931,3.7952,3.7921,3.7921,3.7921,3.7958,3.7959,3.796,0,0,0,0,0,0,3.8007,3.8006,3.7995,3.7997,3.7995,3.7975,3.7974,3.797,3.7969,3.795,3.7946,3.7955,3.7933,3.7931,3.7938,3.7951,3.7921,3.7921,3.7957,3.7958,3.796,3.7994,0,0,0,0,0,0,3.8008,3.8007,3.8013,3.7997,3.7995,3.8002,3.7975,3.7971,3.7969,3.7965,3.7951,3.7947,3.7932,3.7939,3.7938,3.795,3.7921,3.7956,3.7958,3.7959,3.7992,3.7996,3.8001,0,0,0,0,0,3.8008,3.8024,3.8014,3.8013,3.8003,3.8003,3.8001,3.7983,3.797,3.7977,3.7965,3.7948,3.795,3.794,3.7939,3.7951,3.7955,3.7957,3.7959,3.799,3.7995,3.8,0,0,0,0,0,0,3.8042,3.8022,3.801,3.8021,3.8014,3.7997,3.8005,3.799,3.7986,3.7983,3.7961,3.7958,3.7968,3.7961,3.7949,3.7969,3.795,3.7952,3.7973,3.7978,3.7983,3.7984,3.7921,0,0,0,0,0,3.8051,3.8052,3.8035,3.8046,3.8043,3.8025,3.8024,3.8011,3.8002,3.7999,3.7988,3.798,3.7979,3.7979,3.7977,3.7991,3.7987,3.7999,3.8004,3.8007,3.8009,3.8015,3.802,3.7968,3.7968,3.7968,0,0,3.8069,3.8058,3.806,3.8053,3.8045,3.8047,3.8022,3.8025,3.8026,3.7999,3.8005,3.7997,3.7987,3.7997,3.8002,3.7991,3.8023,3.801,3.8013,3.8013,3.8018,3.8023,3.8028,3.7969,3.7969,3.7969,0,0,3.8103,3.8095,3.8103,3.8097,3.8086,3.8074,3.8077,3.8062,3.8055,3.806,3.804,3.8041,3.804,3.8034,3.803,3.8063,3.8047,3.8063,3.8085,3.8092,3.8096,3.81,3.811,3.8114,3.8065,3.8065,3.8065,0,3.8126,3.8128,3.811,3.8114,3.8111,3.8087,3.8096,3.809,3.808,3.8078,3.8068,3.8065,3.8057,3.8065,3.8073,3.8072,3.8073,3.8063,3.8097,3.81,3.8104,3.8113,3.8117,3.8067,3.8067,3.8067,3.8066,0,3.8157,3.8159,3.8167,3.8158,3.8156,3.8162,3.8145,3.8146,3.8133,3.8122,3.8128,3.8118,3.8113,3.8114,3.8102,3.8121,3.8115,3.8101,3.8081,3.8111,3.8119,3.8123,3.807,3.8069,3.8068,3.8068,0,0,3.821,3.8191,3.8194,3.8189,3.8176,3.8177,3.8183,3.8178,3.8179,3.8173,3.8176,3.8177,3.8164,3.816,3.8147,3.8153,3.8178,3.8138,3.8138,3.8145,3.8197,3.8207,3.8211,3.8168,3.8169,3.817,3.8198,0,3.824,3.8248,3.8232,3.8243,3.8244,3.8222,3.8227,3.822,3.821,3.821,3.8199,3.8199,3.8183,3.818,3.8185,3.8174,3.8188,3.8172,3.8171,3.8171,3.8172,3.8216,3.8226,3.8253,3.8201,3.8202,3.8202,0,3.8275,3.8271,3.8282,3.8269,3.8269,3.8273,3.8268,3.8268,3.8259,3.8252,3.8248,3.8234,3.8238,3.822,3.8226,3.8215,3.8214,3.8209,3.8209,3.8207,3.8187,3.8213,3.8261,3.8264,3.8207,3.8207,3.8207,0,3.831,3.8308,3.8314,3.8311,3.8296,3.83,3.8293,3.8284,3.8282,3.8278,3.8277,3.8273,3.8271,3.8268,3.8253,3.8241,3.826,3.8241,3.8253,3.8253,3.8256,3.8256,3.8303,3.8259,3.8258,3.8258,3.8258,0,3.8344,3.8352,3.833,3.8334,3.8342,3.8324,3.8332,3.8324,3.8316,3.8318,3.83,3.8302,3.8282,3.8282,3.8271,3.8276,3.8276,3.8269,3.8266,3.827,3.8271,3.8268,3.8265,3.8259,3.8259,3.8259,3.8259,0,3.8384,3.837,3.8375,3.8361,3.8358,3.8364,3.8352,3.8355,3.8344,3.8347,3.8347,3.833,3.8329,3.8314,3.831,3.8302,3.8313,3.8306,3.8315,3.8313,3.8325,3.8323,3.837,3.8375,3.8329,3.833,3.833,0,3.8406,3.8411,3.8397,3.8397,3.8392,3.8392,3.839,3.8374,3.8373,3.8364,3.8368,3.8366,3.8362,3.8362,3.835,3.8347,3.8339,3.8356,3.8339,3.8343,3.8338,3.8337,3.8337,3.8359,3.836,3.836,3.8361,0,3.8445,3.8438,3.8436,3.8432,3.843,3.8426,3.8421,3.8422,3.8404,3.8404,3.8403,3.84,3.8396,3.8394,3.8389,3.8383,3.8368,3.8366,3.8369,3.8372,3.8376,3.8373,3.8323,3.8365,3.8364,3.8364,3.8364,3.8364,3.8475,3.8479,3.847,3.8468,3.8463,3.8459,3.8461,3.8451,3.845,3.8445,3.8436,3.8436,3.8428,3.8419,3.8414,3.8414,3.8405,3.8409,3.841,3.8411,3.8413,3.8378,3.8413,3.8413,3.8413,3.8413,3.8413,0,3.8512,3.8506,3.8505,3.8498,3.8497,3.8485,3.8479,3.8478,3.8479,3.8473,3.847,3.8469,3.8467,3.8455,3.8452,3.8454,3.8447,3.8453,3.8452,3.8451,3.8421,3.8419,3.8459,3.8459,3.8459,3.8459,3.8459,3.8459,3.8531,3.8536,3.8528,3.8531,3.8524,3.8524,3.8522,3.8518,3.8513,3.8512,3.851,3.8503,3.8494,3.849,3.8488,3.8484,3.8483,3.8491,3.8486,3.8458,3.8453,3.8449,3.8446,3.8492,3.8492,3.8515,3.8515,3.8516]}]]